GW5331 Weather Reports


time (UTC)temp
C
wind
direction
speed
KPH
gust
KPH
rain 1hr
cm
rain 24hr
cm
rain mn
cm
humidity
%
barometer
mb
20260502151018 23 0.0 0.0 0.00 0.00 0.00 61 1015.1
20260502150501 23 0.0 0.0 0.00 0.00 0.00 61 1015.1
20260502130334 22 0.0 0.0 0.00 0.00 0.00 64 1017.1
20260502123510 22 0.0 0.0 0.00 0.00 0.00 62 1018.0
20260502123004 23 0.0 0.0 0.00 0.00 0.00 61 1017.9
20260502122346 23 0.0 0.0 0.00 0.00 0.00 60 1017.7
20260502121834 23 0.0 0.0 0.00 0.00 0.00 60 1017.7
20260502121216 23 0.0 0.0 0.00 0.00 0.00 60 1017.3
20260502120603 23 0.0 0.0 0.00 0.00 0.00 60 1017.2
20260502115545 23 0.0 0.0 0.00 0.00 0.00 60 1017.1
20260502115028 23 0.0 0.0 0.00 0.00 0.00 60 1017.1
20260502114516 23 0.0 0.0 0.00 0.00 0.00 60 1017.0
20260502114004 23 0.0 0.0 0.00 0.00 0.00 60 1017.1
20260502113351 23 0.0 0.0 0.00 0.00 0.00 59 1017.2
20260502112840 24 0.0 0.0 0.00 0.00 0.00 59 1017.2
20260502112332 24 0.0 0.0 0.00 0.00 0.00 59 1017.4
20260502111816 24 0.0 0.0 0.00 0.00 0.00 59 1017.4
20260502111304 24 0.0 0.0 0.00 0.00 0.00 59 1017.5
20260502110752 23 0.0 0.0 0.00 0.00 0.00 60 1017.6
20260502110140 23 0.0 0.0 0.00 0.00 0.00 60 1017.7
20260502105628 23 0.0 0.0 0.00 0.00 0.00 60 1017.7
20260502105122 24 0.0 0.0 0.00 0.00 0.00 59 1017.8
20260502104605 23 0.0 0.0 0.00 0.00 0.00 61 1017.9
20260502104053 23 0.0 0.0 0.00 0.00 0.00 60 1018.0
20260502103541 23 0.0 0.0 0.00 0.00 0.00 60 1018.1
20260502103028 23 0.0 0.0 0.00 0.00 0.00 60 1018.0
20260502102517 23 0.0 0.0 0.00 0.00 0.00 60 1018.1
20260502102010 23 0.0 0.0 0.00 0.00 0.00 60 1018.1
20260502101453 23 0.0 0.0 0.00 0.00 0.00 60 1018.0
20260502100840 23 0.0 0.0 0.00 0.00 0.00 60 1018.1
20260502100121 23 0.0 0.0 0.00 0.00 0.00 60 1017.9
20260502091131 25 0.0 0.0 0.00 0.00 0.00 58 1018.8
20260502090513 25 0.0 0.0 0.00 0.00 0.00 57 1018.8
20260502071202 25 0.0 0.0 0.00 0.00 0.00 59 1018.0
20260502070650 25 0.0 0.0 0.00 0.00 0.00 59 1017.9
20260502070144 25 0.0 0.0 0.00 0.00 0.00 59 1017.9
20260502065626 25 0.0 0.0 0.00 0.00 0.00 60 1017.7
20260502065115 25 0.0 0.0 0.00 0.00 0.00 60 1017.7
20260502064502 25 0.0 0.0 0.00 0.00 0.00 59 1017.5
20260502063950 25 0.0 0.0 0.00 0.00 0.00 60 1017.4
20260502063438 25 0.0 0.0 0.00 0.00 0.00 60 1017.1
20260502062932 24 0.0 0.0 0.00 0.00 0.00 60 1017.3
20260502062414 24 0.0 0.0 0.00 0.00 0.00 60 1017.3
20260502061902 24 0.0 0.0 0.00 0.00 0.00 60 1017.2
20260502061351 24 0.0 0.0 0.00 0.00 0.00 60 1017.1
20260502060839 24 0.0 0.0 0.00 0.00 0.00 60 1017.1
20260502060327 24 0.0 0.0 0.00 0.00 0.00 60 1017.0
20260502055821 24 0.0 0.0 0.00 0.00 0.00 60 1016.9
20260502055305 24 0.0 0.0 0.00 0.00 0.00 60 1016.8
20260502054752 24 0.0 0.0 0.00 0.00 0.00 60 1016.6
20260502054240 24 0.0 0.0 0.00 0.00 0.00 60 1016.4
20260502053627 24 0.0 0.0 0.00 0.00 0.00 60 1016.3
20260502053115 24 0.0 0.0 0.00 0.00 0.00 61 1016.1
20260502052609 24 0.0 0.0 0.00 0.00 0.00 60 1016.0
20260502052052 24 0.0 0.0 0.00 0.00 0.00 60 1015.8
20260502051540 24 0.0 0.0 0.00 0.00 0.00 61 1015.8
20260502051027 23 0.0 0.0 0.00 0.00 0.00 61 1015.8
20260502050516 23 0.0 0.0 0.00 0.00 0.00 60 1015.8